QPF
0.00 0.00 0.00 0.00 0.00 0.00 0.00 0.00 0.00 0.00 0.00 0.00 0.00 0.00 0.00 0.00 0.00 0.00 0.00 0.00 0.00 0.00 0.00 0.00 0.01 0.01 0.03 0.04 0.05 0.07 0.09 0.10 0.09 0.08 0.08 0.08 0.06 0.04
0.00 0.00 0.00 0.00 0.00 0.00 0.00 0.00 0.00 0.00 0.00 0.00 0.00 0.00 0.00 0.00 0.00 0.00 0.00 0.00 0.01 0.01 0.01 0.01 0.01 0.01 0.02 0.03 0.04 0.04 0.05 0.06 0.07 0.07 0.06 0.05 0.04 0.03
0.00 0.00 0.00 0.00 0.00 0.00 0.00 0.00 0.00 0.00 0.00 0.00 0.00 0.00 0.00 0.00 0.00 0.00 0.00 0.00 0.00 0.00 0.01 0.01 0.01 0.01 0.02 0.02 0.03 0.04 0.05 0.04 0.04 0.05 0.05 0.05 0.04 0.03
0.00 0.00 0.00 0.00 0.00 0.00 0.00 0.00 0.00 0.00 0.00 0.00 0.00 0.00 0.00 0.00 0.00 0.00 0.00 0.00 0.00 0.00 0.00 0.01 0.02 0.01 0.02 0.02 0.03 0.04 0.05 0.06 0.05 0.04 0.04 0.05 0.05 0.05
0.00 0.00 0.00 0.00 0.00 0.00 0.00 0.00 0.00 0.00 0.00 0.00 0.00 0.00 0.00 0.00 0.00 0.00 0.00 0.00 0.00 0.00 0.00 0.00 0.01 0.03 0.03 0.02 0.02 0.02 0.03 0.04 0.04 0.05 0.05 0.04 0.04 0.05
0.00 0.00 0.00 0.00 0.00 0.00 0.00 0.00 0.00 0.00 0.00 0.00 0.00 0.00 0.00 0.00 0.00 0.00 0.00 0.00 0.00 0.00 0.00 0.00 0.00 0.01 0.02 0.03 0.03 0.02 0.02 0.02 0.04 0.04 0.05 0.05 0.04 0.04
0.00 0.00 0.00 0.00 0.00 0.00 0.00 0.00 0.00 0.00 0.00 0.00 0.00 0.00 0.00 0.00 0.00 0.00 0.00 0.00 0.00 0.00 0.00 0.00 0.00 0.00 0.00 0.01 0.02 0.03 0.02 0.02 0.02 0.03 0.05 0.06 0.06 0.05
0.00 0.00 0.00 0.00 0.00 0.00 0.00 0.00 0.00 0.00 0.00 0.00 0.00 0.00 0.00 0.00 0.00 0.00 0.00 0.00 0.00 0.00 0.00 0.00 0.00 0.00 0.00 0.00 0.01 0.02 0.03 0.02 0.02 0.02 0.02 0.04 0.06 0.07
0.00 0.00 0.00 0.00 0.00 0.00 0.00 0.00 0.00 0.00 0.00 0.00 0.00 0.00 0.00 0.00 0.00 0.00 0.00 0.00 0.00 0.00 0.00 0.00 0.00 0.00 0.00 0.00 0.00 0.00 0.01 0.02 0.03 0.02 0.02 0.02 0.03 0.05
0.00 0.00 0.00 0.00 0.00 0.00 0.00 0.00 0.00 0.00 0.00 0.00 0.00 0.00 0.00 0.00 0.00 0.00 0.00 0.00 0.00 0.00 0.00 0.00 0.00 0.00 0.00 0.00 0.00 0.00 0.01 0.02 0.02 0.03 0.03 0.03 0.03 0.02
0.00 0.00 0.00 0.00 0.00 0.00 0.00 0.00 0.00 0.00 0.00 0.00 0.00 0.00 0.00 0.00 0.00 0.00 0.00 0.00 0.00 0.00 0.00 0.00 0.00 0.00 0.00 0.00 0.00 0.01 0.01 0.02 0.04 0.04 0.04 0.03 0.03 0.03
0.00 0.00 0.00 0.00 0.00 0.00 0.00 0.00 0.00 0.00 0.00 0.00 0.00 0.00 0.00 0.00 0.00 0.00 0.00 0.00 0.00 0.00 0.00 0.00 0.00 0.00 0.00 0.00 0.00 0.01 0.01 0.02 0.03 0.05 0.06 0.06 0.05 0.04
0.00 0.00 0.00 0.00 0.00 0.00 0.00 0.00 0.00 0.00 0.00 0.00 0.00 0.00 0.00 0.00 0.00 0.00 0.00 0.00 0.00 0.00 0.00 0.00 0.00 0.00 0.00 0.01 0.01 0.02 0.03 0.03 0.03 0.04 0.05 0.06 0.07 0.07
0.00 0.00 0.00 0.00 0.00 0.00 0.00 0.00 0.00 0.00 0.00 0.00 0.00 0.00 0.00 0.00 0.00 0.00 0.00 0.00 0.00 0.00 0.00 0.00 0.00 0.00 0.00 0.00 0.01 0.02 0.03 0.04 0.04 0.05 0.06 0.07 0.07 0.09
0.00 0.00 0.01 0.01 0.01 0.00 0.00 0.00 0.00 0.00 0.00 0.00 0.00 0.00 0.00 0.00 0.00 0.00 0.00 0.00 0.00 0.00 0.00 0.00 0.00 0.00 0.00 0.00 0.00 0.01 0.02 0.03 0.03 0.05 0.06 0.08 0.08 0.07
0.01 0.01 0.01 0.01 0.01 0.00 0.00 0.00 0.00 0.00 0.00 0.00 0.00 0.00 0.00 0.00 0.00 0.00 0.00 0.00 0.00 0.00 0.00 0.00 0.00 0.00 0.00 0.00 0.00 0.00 0.01 0.03 0.04 0.05 0.07 0.08 0.09 0.10
0.03 0.02 0.01 0.01 0.01 0.01 0.01 0.01 0.01 0.01 0.00 0.00 0.00 0.00 0.00 0.00 0.00 0.00 0.00 0.00 0.00 0.00 0.00 0.00 0.00 0.00 0.00 0.00 0.00 0.00 0.00 0.01 0.03 0.05 0.06 0.09 0.10 0.12
0.04 0.03 0.02 0.02 0.02 0.02 0.02 0.02 0.01 0.01 0.00 0.00 0.00 0.00 0.00 0.00 0.00 0.00 0.00 0.00 0.00 0.00 0.00 0.00 0.00 0.00 0.00 0.00 0.00 0.00 0.00 0.01 0.02 0.03 0.05 0.07 0.10 0.11
0.03 0.03 0.03 0.03 0.03 0.03 0.03 0.02 0.01 0.01 0.01 0.00 0.00 0.00 0.00 0.00 0.00 0.00 0.00 0.00 0.00 0.00 0.00 0.00 0.00 0.00 0.00 0.00 0.00 0.00 0.01 0.02 0.02 0.02 0.04 0.06 0.07 0.10
0.03 0.03 0.03 0.03 0.03 0.03 0.03 0.02 0.02 0.01 0.01 0.00 0.00 0.00 0.00 0.00 0.00 0.00 0.00 0.00 0.00 0.00 0.00 0.00 0.00 0.00 0.00 0.00 0.00 0.00 0.01 0.02 0.02 0.03 0.04 0.05 0.07 0.09
0.04 0.04 0.04 0.04 0.03 0.03 0.03 0.02 0.02 0.02 0.01 0.01 0.00 0.00 0.00 0.00 0.00 0.00 0.00 0.00 0.00 0.00 0.00 0.00 0.00 0.00 0.00 0.00 0.00 0.00 0.01 0.01 0.03 0.03 0.05 0.07 0.09 0.11
0.06 0.07 0.06 0.06 0.05 0.04 0.03 0.02 0.02 0.01 0.01 0.01 0.01 0.01 0.01 0.01 0.00 0.00 0.00 0.00 0.00 0.00 0.00 0.00 0.00 0.00 0.00 0.01 0.00 0.00 0.01 0.01 0.02 0.03 0.05 0.09 0.10 0.10
0.10 0.09 0.08 0.07 0.06 0.05 0.04 0.04 0.02 0.02 0.01 0.01 0.01 0.01 0.01 0.01 0.01 0.01 0.01 0.01 0.01 0.01 0.00 0.00 0.00 0.00 0.00 0.00 0.00 0.00 0.01 0.01 0.02 0.03 0.04 0.08 0.10 0.11
MSLP
1020.18 1020.33 1020.50 1020.67 1020.82 1020.92 1020.97 1020.95 1020.86 1020.71 1020.52 1020.30 1020.06 1019.81 1019.55 1019.29 1019.04 1018.80 1018.57 1018.37 1018.21 1018.07 1017.98 1017.92 1017.88 1017.86 1017.86 1017.86 1017.86 1017.87 1017.90 1017.96 1018.06 1018.21 1018.40 1018.66 1018.96 1019.29
1019.70 1019.83 1019.99 1020.16 1020.31 1020.44 1020.51 1020.53 1020.49 1020.39 1020.26 1020.08 1019.88 1019.66 1019.43 1019.18 1018.93 1018.68 1018.43 1018.20 1018.00 1017.83 1017.70 1017.61 1017.54 1017.50 1017.46 1017.44 1017.41 1017.39 1017.38 1017.39 1017.43 1017.51 1017.64 1017.83 1018.07 1018.36
1019.12 1019.25 1019.40 1019.56 1019.72 1019.86 1019.95 1020.00 1020.00 1019.95 1019.86 1019.73 1019.57 1019.39 1019.19 1018.97 1018.74 1018.49 1018.24 1018.00 1017.78 1017.58 1017.42 1017.29 1017.20 1017.12 1017.06 1017.01 1016.96 1016.91 1016.86 1016.82 1016.80 1016.82 1016.89 1017.01 1017.20 1017.45
1018.54 1018.66 1018.81 1018.97 1019.14 1019.28 1019.38 1019.45 1019.47 1019.45 1019.39 1019.30 1019.18 1019.04 1018.88 1018.69 1018.48 1018.25 1018.02 1017.77 1017.54 1017.33 1017.14 1016.98 1016.85 1016.74 1016.65 1016.56 1016.48 1016.39 1016.30 1016.22 1016.15 1016.12 1016.13 1016.20 1016.34 1016.55
1018.01 1018.13 1018.28 1018.45 1018.61 1018.75 1018.85 1018.92 1018.94 1018.93 1018.89 1018.82 1018.73 1018.62 1018.49 1018.35 1018.17 1017.97 1017.76 1017.53 1017.29 1017.07 1016.86 1016.67 1016.50 1016.35 1016.21 1016.09 1015.96 1015.83 1015.70 1015.57 1015.47 1015.39 1015.36 1015.38 1015.48 1015.65
1017.55 1017.67 1017.83 1017.99 1018.14 1018.27 1018.37 1018.42 1018.43 1018.41 1018.37 1018.30 1018.23 1018.15 1018.05 1017.94 1017.80 1017.64 1017.46 1017.25 1017.02 1016.79 1016.57 1016.35 1016.14 1015.95 1015.76 1015.58 1015.41 1015.23 1015.06 1014.89 1014.75 1014.63 1014.56 1014.56 1014.62 1014.77
1017.11 1017.24 1017.40 1017.56 1017.71 1017.82 1017.90 1017.92 1017.91 1017.87 1017.82 1017.75 1017.68 1017.61 1017.54 1017.46 1017.36 1017.24 1017.10 1016.92 1016.71 1016.49 1016.25 1016.01 1015.77 1015.54 1015.30 1015.08 1014.85 1014.63 1014.41 1014.20 1014.02 1013.87 1013.77 1013.74 1013.79 1013.91
1016.62 1016.77 1016.94 1017.10 1017.23 1017.33 1017.38 1017.38 1017.35 1017.28 1017.21 1017.13 1017.06 1017.00 1016.95 1016.89 1016.83 1016.76 1016.65 1016.51 1016.33 1016.13 1015.90 1015.65 1015.39 1015.12 1014.85 1014.58 1014.31 1014.04 1013.78 1013.53 1013.32 1013.14 1013.02 1012.97 1013.00 1013.11
1016.03 1016.18 1016.35 1016.51 1016.63 1016.72 1016.75 1016.74 1016.69 1016.61 1016.52 1016.43 1016.36 1016.30 1016.27 1016.24 1016.21 1016.17 1016.11 1016.01 1015.88 1015.70 1015.49 1015.25 1014.99 1014.71 1014.41 1014.11 1013.80 1013.50 1013.20 1012.93 1012.68 1012.49 1012.35 1012.28 1012.29 1012.39
1015.26 1015.42 1015.59 1015.74 1015.87 1015.95 1015.98 1015.97 1015.91 1015.83 1015.74 1015.65 1015.58 1015.54 1015.52 1015.51 1015.51 1015.51 1015.48 1015.43 1015.33 1015.20 1015.02 1014.81 1014.56 1014.29 1013.99 1013.68 1013.35 1013.02 1012.70 1012.40 1012.14 1011.92 1011.76 1011.68 1011.68 1011.76
1014.34 1014.49 1014.65 1014.80 1014.92 1015.01 1015.06 1015.06 1015.03 1014.97 1014.89 1014.82 1014.77 1014.74 1014.73 1014.74 1014.76 1014.78 1014.78 1014.76 1014.71 1014.62 1014.48 1014.31 1014.10 1013.85 1013.56 1013.25 1012.93 1012.59 1012.26 1011.95 1011.67 1011.44 1011.27 1011.17 1011.16 1011.23
1013.30 1013.43 1013.57 1013.71 1013.85 1013.95 1014.03 1014.06 1014.07 1014.05 1014.01 1013.97 1013.94 1013.93 1013.93 1013.95 1013.98 1014.02 1014.04 1014.04 1014.02 1013.97 1013.88 1013.74 1013.57 1013.35 1013.10 1012.82 1012.50 1012.18 1011.85 1011.53 1011.24 1011.01 1010.83 1010.72 1010.70 1010.75
1012.23 1012.31 1012.43 1012.56 1012.69 1012.82 1012.93 1013.01 1013.06 1013.10 1013.11 1013.12 1013.13 1013.14 1013.15 1013.18 1013.21 1013.24 1013.26 1013.28 1013.28 1013.25 1013.19 1013.09 1012.96 1012.79 1012.57 1012.32 1012.03 1011.72 1011.40 1011.09 1010.81 1010.57 1010.39 1010.28 1010.24 1010.28
1011.19 1011.22 1011.28 1011.39 1011.52 1011.66 1011.80 1011.93 1012.04 1012.14 1012.22 1012.28 1012.32 1012.36 1012.39 1012.41 1012.44 1012.45 1012.47 1012.48 1012.48 1012.46 1012.42 1012.35 1012.25 1012.12 1011.94 1011.71 1011.46 1011.17 1010.87 1010.58 1010.31 1010.07 1009.89 1009.78 1009.73 1009.76
1010.23 1010.18 1010.18 1010.25 1010.35 1010.50 1010.66 1010.84 1011.01 1011.17 1011.31 1011.42 1011.51 1011.57 1011.62 1011.64 1011.65 1011.66 1011.65 1011.64 1011.63 1011.61 1011.57 1011.52 1011.44 1011.33 1011.18 1010.99 1010.76 1010.50 1010.23 1009.95 1009.70 1009.47 1009.30 1009.18 1009.13 1009.14
1009.33 1009.19 1009.12 1009.13 1009.20 1009.34 1009.51 1009.72 1009.94 1010.15 1010.35 1010.52 1010.65 1010.75 1010.81 1010.84 1010.84 1010.82 1010.80 1010.76 1010.73 1010.69 1010.65 1010.60 1010.53 1010.44 1010.31 1010.14 1009.94 1009.71 1009.46 1009.21 1008.97 1008.76 1008.59 1008.48 1008.42 1008.41
1008.45 1008.22 1008.07 1008.01 1008.04 1008.15 1008.32 1008.55 1008.80 1009.06 1009.31 1009.54 1009.72 1009.85 1009.93 1009.97 1009.97 1009.94 1009.89 1009.84 1009.78 1009.73 1009.68 1009.62 1009.55 1009.46 1009.34 1009.20 1009.01 1008.81 1008.59 1008.36 1008.14 1007.95 1007.79 1007.68 1007.61 1007.58
1007.51 1007.19 1006.97 1006.84 1006.82 1006.90 1007.07 1007.31 1007.59 1007.89 1008.19 1008.46 1008.69 1008.86 1008.97 1009.03 1009.03 1009.00 1008.95 1008.88 1008.80 1008.73 1008.67 1008.60 1008.53 1008.44 1008.33 1008.20 1008.04 1007.86 1007.66 1007.45 1007.26 1007.08 1006.93 1006.82 1006.74 1006.68
1006.48 1006.09 1005.80 1005.62 1005.55 1005.61 1005.77 1006.02 1006.33 1006.66 1007.00 1007.32 1007.59 1007.80 1007.95 1008.02 1008.04 1008.02 1007.96 1007.89 1007.80 1007.72 1007.65 1007.58 1007.50 1007.42 1007.32 1007.20 1007.06 1006.90 1006.73 1006.55 1006.37 1006.21 1006.07 1005.96 1005.86 1005.79
1005.35 1004.91 1004.57 1004.36 1004.27 1004.32 1004.48 1004.74 1005.07 1005.44 1005.81 1006.17 1006.47 1006.72 1006.89 1007.00 1007.03 1007.02 1006.97 1006.89 1006.81 1006.72 1006.65 1006.58 1006.50 1006.43 1006.35 1006.24 1006.12 1005.98 1005.84 1005.68 1005.53 1005.38 1005.25 1005.14 1005.04 1004.94
1004.18 1003.71 1003.36 1003.14 1003.05 1003.11 1003.28 1003.56 1003.91 1004.30 1004.70 1005.09 1005.42 1005.68 1005.88 1005.99 1006.04 1006.03 1005.98 1005.91 1005.82 1005.74 1005.67 1005.60 1005.54 1005.48 1005.41 1005.33 1005.23 1005.12 1005.00 1004.87 1004.74 1004.62 1004.50 1004.39 1004.29 1004.18
1003.07 1002.61 1002.26 1002.06 1001.99 1002.07 1002.27 1002.57 1002.94 1003.35 1003.76 1004.15 1004.49 1004.76 1004.95 1005.06 1005.10 1005.08 1005.02 1004.95 1004.86 1004.78 1004.71 1004.65 1004.60 1004.55 1004.51 1004.45 1004.38 1004.30 1004.21 1004.11 1004.01 1003.91 1003.81 1003.71 1003.62 1003.52
1002.13 1001.70 1001.39 1001.22 1001.19 1001.30 1001.53 1001.85 1002.23 1002.65 1003.05 1003.43 1003.74 1003.98 1004.14 1004.22 1004.23 1004.18 1004.10 1004.01 1003.91 1003.82 1003.75 1003.70 1003.67 1003.64 1003.62 1003.59 1003.56 1003.51 1003.45 1003.39 1003.32 1003.24 1003.17 1003.09 1003.02 1002.95
Thickness
5667 5665 5662 5661 5658 5656 5654 5652 5649 5647 5648 5651 5653 5656 5657 5658 5660 5661 5663 5665 5667 5669 5672 5674 5676 5679 5681 5684 5687 5689 5691 5694 5696 5699 5701 5702 5703 5704
5664 5661 5659 5657 5655 5652 5650 5647 5645 5644 5642 5644 5645 5647 5649 5651 5652 5653 5655 5658 5660 5662 5664 5666 5669 5672 5674 5678 5681 5683 5686 5688 5691 5694 5696 5699 5701 5703
5661 5659 5657 5654 5651 5649 5646 5643 5641 5639 5638 5639 5638 5639 5640 5642 5644 5645 5647 5649 5651 5653 5656 5658 5661 5664 5667 5670 5674 5677 5680 5682 5685 5688 5691 5694 5697 5700
5659 5656 5654 5651 5648 5645 5642 5640 5637 5635 5633 5633 5633 5632 5633 5634 5635 5636 5638 5640 5641 5644 5647 5650 5653 5656 5659 5663 5666 5669 5673 5676 5679 5682 5686 5689 5692 5695
5657 5654 5651 5647 5644 5641 5638 5635 5633 5631 5628 5627 5627 5626 5625 5625 5626 5627 5628 5629 5631 5634 5637 5640 5643 5647 5650 5654 5658 5662 5665 5669 5672 5675 5679 5683 5687 5690
5655 5651 5648 5644 5641 5638 5635 5631 5628 5625 5623 5621 5620 5619 5618 5617 5615 5616 5618 5619 5621 5624 5627 5630 5633 5636 5640 5644 5649 5653 5657 5660 5665 5669 5673 5677 5681 5684
5652 5648 5645 5642 5639 5635 5632 5628 5624 5620 5617 5615 5614 5612 5611 5608 5608 5608 5609 5610 5611 5612 5616 5619 5622 5625 5629 5633 5638 5643 5648 5652 5657 5661 5666 5670 5674 5679
5648 5645 5642 5638 5635 5632 5629 5625 5620 5616 5613 5610 5609 5607 5606 5603 5601 5599 5599 5599 5601 5603 5603 5607 5609 5614 5618 5623 5628 5633 5638 5643 5648 5653 5658 5663 5668 5673
5644 5641 5638 5636 5631 5627 5624 5621 5617 5613 5609 5606 5604 5603 5600 5598 5594 5592 5590 5591 5592 5593 5592 5597 5599 5603 5608 5613 5619 5624 5629 5634 5639 5645 5650 5656 5661 5666
5641 5637 5633 5630 5626 5622 5618 5615 5611 5608 5604 5601 5600 5598 5595 5591 5587 5586 5584 5583 5583 5583 5582 5586 5591 5595 5601 5605 5610 5615 5621 5625 5630 5636 5642 5648 5653 5659
5637 5633 5629 5625 5621 5615 5611 5608 5606 5603 5599 5596 5594 5592 5588 5584 5580 5576 5574 5573 5576 5578 5575 5577 5584 5587 5592 5598 5603 5607 5612 5617 5622 5627 5633 5639 5644 5650
5631 5628 5624 5620 5617 5610 5605 5602 5599 5598 5593 5590 5587 5584 5581 5578 5573 5570 5570 5568 5570 5571 5571 5569 5574 5576 5583 5590 5594 5597 5602 5607 5612 5618 5624 5630 5635 5640
5626 5624 5621 5616 5610 5605 5599 5597 5595 5591 5586 5582 5579 5577 5573 5571 5568 5566 5564 5564 5565 5566 5565 5562 5566 5567 5571 5579 5584 5587 5592 5597 5603 5609 5615 5621 5626 5631
5620 5619 5616 5610 5604 5598 5593 5590 5586 5580 5576 5573 5571 5570 5567 5565 5563 5561 5559 5558 5559 5560 5559 5557 5558 5560 5563 5569 5575 5579 5583 5588 5593 5600 5606 5612 5618 5624
5612 5611 5607 5601 5595 5590 5586 5582 5576 5571 5569 5566 5566 5565 5563 5560 5557 5554 5552 5551 5551 5552 5553 5551 5552 5554 5556 5561 5567 5571 5575 5581 5585 5591 5597 5603 5610 5617
5599 5598 5594 5589 5584 5581 5578 5574 5570 5567 5564 5563 5562 5560 5556 5552 5550 5548 5547 5546 5546 5549 5549 5548 5548 5549 5551 5555 5559 5564 5568 5572 5578 5583 5588 5595 5602 5609
5585 5584 5582 5579 5576 5573 5569 5567 5563 5559 5556 5555 5553 5551 5549 5547 5546 5543 5540 5540 5540 5545 5547 5546 5544 5545 5547 5550 5554 5559 5562 5567 5571 5575 5580 5588 5596 5603
5566 5570 5571 5570 5569 5567 5564 5561 5557 5554 5552 5549 5547 5545 5544 5543 5542 5539 5536 5536 5538 5540 5541 5541 5540 5540 5542 5546 5549 5554 5558 5562 5566 5569 5574 5581 5591 5598
5552 5558 5560 5560 5560 5558 5556 5553 5552 5550 5546 5543 5542 5540 5539 5538 5537 5535 5534 5533 5534 5536 5537 5536 5535 5536 5541 5547 5553 5549 5553 5558 5561 5565 5570 5576 5584 5592
5540 5544 5547 5548 5547 5547 5546 5544 5543 5541 5538 5537 5537 5536 5535 5534 5533 5532 5532 5531 5532 5533 5533 5533 5532 5534 5537 5544 5547 5549 5548 5552 5555 5560 5565 5571 5577 5584
5527 5528 5531 5533 5534 5534 5534 5533 5533 5533 5533 5532 5532 5531 5531 5530 5530 5530 5530 5528 5527 5529 5531 5533 5534 5532 5533 5534 5538 5544 5545 5546 5550 5554 5560 5564 5571 5578
5513 5515 5517 5519 5521 5522 5523 5523 5524 5526 5526 5526 5527 5527 5527 5527 5527 5527 5527 5527 5527 5528 5530 5531 5530 5527 5527 5530 5535 5540 5542 5543 5545 5547 5551 5557 5564 5574
5502 5504 5507 5510 5512 5513 5515 5517 5519 5520 5522 5523 5523 5523 5523 5523 5523 5524 5524 5524 5524 5525 5525 5526 5525 5524 5526 5528 5531 5535 5537 5539 5540 5543 5548 5551 5555 5562